| time (UTC) | temp F | wind direction | speed MPH | gust MPH | rain 1hr in | rain 24hr in | rain mn in | humidity % | barometer mb |
| 20260903005341 | 90 | 267 | 1.0 | 5.0 | 0.00 | 0.01 | 0.01 | 52 | 1010.4 |
| 20260903004606 | 91 | 137 | 1.0 | 5.0 | 0.00 | 0.01 | 0.01 | 52 | 1010.5 |
| 20260903004104 | 90 | 140 | 1.0 | 3.0 | 0.00 | 0.01 | 0.01 | 52 | 1010.5 |
| 20260903003604 | 90 | 132 | 1.0 | 3.0 | 0.00 | 0.01 | 0.01 | 52 | 1010.7 |
| 20260903003351 | 90 | 198 | 1.0 | 3.0 | 0.00 | 0.01 | 0.01 | 52 | 1010.7 |
| 20260903002602 | 91 | 286 | 1.0 | 3.0 | 0.00 | 0.01 | 0.01 | 52 | 1010.7 |
| 20260903002148 | 91 | 282 | 1.0 | 5.0 | 0.00 | 0.01 | 0.01 | 52 | 1010.7 |
| 20260903002131 | 91 | 285 | 1.0 | 5.0 | 0.00 | 0.01 | 0.01 | 53 | 1010.7 |
| 20260903001101 | 92 | 203 | 1.0 | 5.0 | 0.00 | 0.01 | 0.01 | 51 | 1010.7 |
| 20260903000602 | 92 | 160 | 2.0 | 6.0 | 0.00 | 0.01 | 0.01 | 51 | 1010.7 |
| 20260902235602 | 95 | 193 | 2.0 | 5.0 | 0.00 | 0.01 | 0.01 | 48 | 1010.5 |
| 20260902235103 | 96 | 210 | 1.0 | 3.0 | 0.00 | 0.01 | 0.01 | 46 | 1010.4 |
| 20260902234602 | 96 | 256 | 1.0 | 3.0 | 0.00 | 0.01 | 0.01 | 44 | 1010.4 |
| 20260902234105 | 0 | 0.0 | 0.0 | 0.00 | 0.00 | 0.00 | |||
| 20260902233529 | 0 | 0.0 | 0.0 | 0.00 | 0.00 | 0.00 | |||
| 20260902233033 | 0 | 0.0 | 0.0 | 0.00 | 0.00 | 0.00 | |||
| 20260902232802 | 0 | 0.0 | 0.0 | 0.01 | 0.01 | 0.01 | |||
| 20260902232302 | 92 | 55 | 0.0 | 2.0 | 0.01 | 0.01 | 0.01 | 53 | 1010.3 |
| 20260902231802 | 92 | 55 | 0.0 | 2.0 | 0.01 | 0.01 | 0.01 | 53 | 1010.3 |
| 20260902231302 | 91 | 87 | 0.0 | 3.0 | 0.01 | 0.01 | 0.01 | 55 | 1010.4 |
| 20260902231027 | 91 | 87 | 0.0 | 3.0 | 0.01 | 0.01 | 0.01 | 55 | 1010.4 |
| 20260902230303 | 91 | 113 | 0.0 | 3.0 | 0.01 | 0.01 | 0.01 | 54 | 1010.5 |
| 20260902225802 | 91 | 0 | 2.0 | 5.0 | 0.01 | 0.00 | 0.01 | 56 | 1010.5 |
| 20260902225305 | 91 | 176 | 3.0 | 7.0 | 0.01 | 0.00 | 0.01 | 56 | 1010.4 |
| 20260902224800 | 92 | 243 | 4.0 | 11.0 | 0.01 | 0.00 | 0.01 | 55 | 1010.4 |
| 20260902224302 | 94 | 256 | 6.0 | 11.0 | 0.00 | 0.00 | 0.00 | 49 | 1010.4 |
| 20260902224042 | 96 | 222 | 4.0 | 10.0 | 0.00 | 0.00 | 0.00 | 45 | 1010.4 |
| 20260902223301 | 98 | 244 | 2.0 | 6.0 | 0.00 | 0.00 | 0.00 | 43 | 1010.2 |
| 20260902222800 | 98 | 336 | 2.0 | 5.0 | 0.00 | 0.00 | 0.00 | 39 | 1010.1 |
| 20260902222305 | 99 | 225 | 1.0 | 4.0 | 0.00 | 0.00 | 0.00 | 38 | 1010.1 |
| 20260902221801 | 99 | 217 | 1.0 | 3.0 | 0.00 | 0.00 | 0.00 | 38 | 1010.1 |
| 20260902221301 | 99 | 222 | 1.0 | 3.0 | 0.00 | 0.00 | 0.00 | 38 | 1010.0 |
| 20260902220801 | 99 | 227 | 1.0 | 3.0 | 0.00 | 0.00 | 0.00 | 38 | 1010.1 |
| 20260902220301 | 99 | 200 | 1.0 | 3.0 | 0.00 | 0.00 | 0.00 | 38 | 1010.1 |
| 20260902215801 | 100 | 238 | 0.0 | 2.0 | 0.00 | 0.00 | 0.00 | 37 | 1010.1 |
| 20260902215306 | 100 | 0 | 0.0 | 2.0 | 0.00 | 0.00 | 0.00 | 37 | 1010.1 |
| 20260902214801 | 100 | 0 | 1.0 | 2.0 | 0.00 | 0.00 | 0.00 | 37 | 1010.2 |
| 20260902214302 | 100 | 213 | 2.0 | 4.0 | 0.00 | 0.00 | 0.00 | 38 | 1010.3 |
| 20260902213800 | 100 | 219 | 2.0 | 4.0 | 0.00 | 0.00 | 0.00 | 37 | 1010.3 |
| 20260902213544 | 101 | 228 | 2.0 | 4.0 | 0.00 | 0.00 | 0.00 | 37 | 1010.3 |
| 20260902213048 | 102 | 251 | 1.0 | 4.0 | 0.00 | 0.00 | 0.00 | 36 | 1010.3 |
| 20260902212305 | 102 | 0 | 2.0 | 4.0 | 0.00 | 0.00 | 0.00 | 35 | 1010.3 |
| 20260902211801 | 101 | 0 | 1.0 | 4.0 | 0.00 | 0.00 | 0.00 | 37 | 1010.3 |
| 20260902211547 | 100 | 216 | 1.0 | 4.0 | 0.00 | 0.00 | 0.00 | 37 | 1010.3 |
| 20260902210802 | 100 | 213 | 1.0 | 4.0 | 0.00 | 0.00 | 0.00 | 37 | 1010.4 |
| 20260902210302 | 100 | 0 | 1.0 | 4.0 | 0.00 | 0.00 | 0.00 | 38 | 1010.5 |
| 20260902205804 | 100 | 196 | 1.0 | 4.0 | 0.00 | 0.00 | 0.00 | 38 | 1010.5 |
| 20260902205300 | 99 | 189 | 1.0 | 3.0 | 0.00 | 0.00 | 0.00 | 38 | 1010.7 |
| 20260902204802 | 100 | 217 | 2.0 | 5.0 | 0.00 | 0.00 | 0.00 | 38 | 1010.9 |
| 20260902204303 | 100 | 217 | 2.0 | 5.0 | 0.00 | 0.00 | 0.00 | 38 | 1010.9 |
| 20260902203805 | 0 | 0.0 | 0.0 | 0.00 | 0.00 | 0.00 | |||
| 20260902203233 | 0 | 0.0 | 0.0 | 0.00 | 0.00 | 0.00 | |||
| 20260902202916 | 0 | 0.0 | 0.0 | 0.00 | 0.00 | 0.00 | |||
| 20260902202907 | 0 | 0.0 | 0.0 | 0.00 | 0.00 | 0.00 | |||
| 20260902201704 | 0 | 0.0 | 0.0 | 0.00 | 0.00 | 0.00 | |||
| 20260902201130 | 103 | 253 | 1.0 | 3.0 | 0.00 | 0.00 | 0.00 | 36 | 1011.4 |
| 20260902200630 | 103 | 253 | 1.0 | 5.0 | 0.00 | 0.00 | 0.00 | 36 | 1011.4 |
| 20260902200130 | 102 | 330 | 2.0 | 7.0 | 0.00 | 0.00 | 0.00 | 36 | 1011.5 |
| 20260902195905 | 102 | 264 | 1.0 | 7.0 | 0.00 | 0.00 | 0.00 | 37 | 1011.5 |
| 20260902195130 | 102 | 143 | 2.0 | 7.0 | 0.00 | 0.00 | 0.00 | 36 | 1011.6 |
| 20260902194630 | 102 | 193 | 2.0 | 7.0 | 0.00 | 0.00 | 0.00 | 37 | 1011.7 |
| 20260902194128 | 102 | 240 | 1.0 | 6.0 | 0.00 | 0.00 | 0.00 | 37 | 1011.7 |
| 20260902193630 | 102 | 226 | 2.0 | 4.0 | 0.00 | 0.00 | 0.00 | 38 | 1011.8 |
| 20260902193128 | 102 | 100 | 2.0 | 7.0 | 0.00 | 0.00 | 0.00 | 37 | 1011.9 |
| 20260902192629 | 102 | 255 | 1.0 | 7.0 | 0.00 | 0.00 | 0.00 | 38 | 1012.0 |
| 20260902192130 | 101 | 212 | 1.0 | 5.0 | 0.00 | 0.00 | 0.00 | 40 | 1012.1 |
| 20260902191630 | 100 | 251 | 2.0 | 7.0 | 0.00 | 0.00 | 0.00 | 40 | 1012.3 |
| 20260902191131 | 100 | 112 | 2.0 | 7.0 | 0.00 | 0.00 | 0.00 | 39 | 1012.3 |
| 20260902190630 | 100 | 230 | 2.0 | 6.0 | 0.00 | 0.00 | 0.00 | 38 | 1012.3 |
| 20260902190129 | 100 | 45 | 2.0 | 6.0 | 0.00 | 0.00 | 0.00 | 39 | 1012.4 |
| 20260902185628 | 99 | 218 | 2.0 | 6.0 | 0.00 | 0.00 | 0.00 | 39 | 1012.5 |
| 20260902185130 | 98 | 240 | 2.0 | 6.0 | 0.00 | 0.00 | 0.00 | 41 | 1012.6 |
| 20260902184630 | 97 | 249 | 4.0 | 6.0 | 0.00 | 0.00 | 0.00 | 43 | 1012.7 |
| 20260902184130 | 100 | 243 | 2.0 | 5.0 | 0.00 | 0.00 | 0.00 | 40 | 1012.8 |
| 20260902183630 | 100 | 243 | 2.0 | 5.0 | 0.00 | 0.00 | 0.00 | 40 | 1012.8 |
| 20260902183129 | 99 | 192 | 1.0 | 4.0 | 0.00 | 0.00 | 0.00 | 40 | 1012.9 |
| 20260902182628 | 98 | 319 | 2.0 | 6.0 | 0.00 | 0.00 | 0.00 | 41 | 1013.0 |
| 20260902182130 | 98 | 233 | 2.0 | 6.0 | 0.00 | 0.00 | 0.00 | 42 | 1013.1 |
| 20260902181629 | 97 | 42 | 2.0 | 5.0 | 0.00 | 0.00 | 0.00 | 41 | 1013.1 |
| 20260902181415 | 97 | 202 | 2.0 | 6.0 | 0.00 | 0.00 | 0.00 | 42 | 1013.3 |
| 20260902180628 | 98 | 212 | 3.0 | 6.0 | 0.00 | 0.00 | 0.00 | 41 | 1013.5 |
| 20260902180133 | 98 | 254 | 3.0 | 8.0 | 0.00 | 0.00 | 0.00 | 43 | 1013.5 |
| 20260902175630 | 97 | 0 | 3.0 | 8.0 | 0.00 | 0.00 | 0.00 | 44 | 1013.6 |
| 20260902175129 | 98 | 244 | 2.0 | 8.0 | 0.00 | 0.00 | 0.00 | 43 | 1013.7 |
| 20260902174629 | 97 | 207 | 1.0 | 5.0 | 0.00 | 0.00 | 0.00 | 43 | 1013.8 |
| 20260902174417 | 97 | 127 | 2.0 | 8.0 | 0.00 | 0.00 | 0.00 | 43 | 1013.8 |
| 20260902173629 | 97 | 212 | 3.0 | 8.0 | 0.00 | 0.00 | 0.00 | 43 | 1013.9 |
| 20260902173129 | 97 | 37 | 2.0 | 6.0 | 0.00 | 0.00 | 0.00 | 44 | 1014.0 |
| 20260902172910 | 97 | 230 | 2.0 | 5.0 | 0.00 | 0.00 | 0.00 | 43 | 1014.0 |
| 20260902172129 | 97 | 221 | 2.0 | 4.0 | 0.00 | 0.00 | 0.00 | 44 | 1014.1 |
| 20260902171629 | 98 | 215 | 1.0 | 4.0 | 0.00 | 0.00 | 0.00 | 43 | 1014.2 |
| 20260902171129 | 97 | 109 | 1.0 | 4.0 | 0.00 | 0.00 | 0.00 | 42 | 1014.2 |
| 20260902170629 | 96 | 180 | 2.0 | 5.0 | 0.00 | 0.00 | 0.00 | 44 | 1014.3 |
| 20260902170130 | 96 | 256 | 2.0 | 7.0 | 0.00 | 0.00 | 0.00 | 45 | 1014.4 |
| 20260902165851 | 96 | 241 | 2.0 | 7.0 | 0.00 | 0.00 | 0.00 | 45 | 1014.4 |
| 20260902165428 | 95 | 237 | 2.0 | 7.0 | 0.00 | 0.00 | 0.00 | 46 | 1014.6 |
| 20260902165423 | 95 | 297 | 2.0 | 7.0 | 0.00 | 0.00 | 0.00 | 46 | 1014.5 |
| 20260902164408 | 95 | 164 | 2.0 | 5.0 | 0.00 | 0.00 | 0.00 | 45 | 1014.6 |
| 20260902163628 | 95 | 231 | 2.0 | 5.0 | 0.00 | 0.00 | 0.00 | 46 | 1014.7 |
| 20260902163129 | 94 | 271 | 1.0 | 4.0 | 0.00 | 0.00 | 0.00 | 48 | 1014.7 |
| 20260902162629 | 94 | 26 | 2.0 | 8.0 | 0.00 | 0.00 | 0.00 | 48 | 1014.8 |
| 20260902162409 | 94 | 55 | 2.0 | 8.0 | 0.00 | 0.00 | 0.00 | 48 | 1014.7 |
| 20260902161910 | 93 | 352 | 2.0 | 6.0 | 0.00 | 0.00 | 0.00 | 49 | 1014.7 |
| 20260902161129 | 93 | 227 | 2.0 | 5.0 | 0.00 | 0.00 | 0.00 | 49 | 1014.7 |
| 20260902160630 | 93 | 0 | 2.0 | 5.0 | 0.00 | 0.00 | 0.00 | 49 | 1014.7 |
| 20260902160409 | 92 | 234 | 2.0 | 5.0 | 0.00 | 0.00 | 0.00 | 51 | 1014.7 |
| 20260902155912 | 92 | 217 | 2.0 | 6.0 | 0.00 | 0.00 | 0.00 | 50 | 1014.7 |
| 20260902155157 | 91 | 235 | 2.0 | 6.0 | 0.00 | 0.00 | 0.00 | 53 | 1014.7 |
| 20260902155149 | 91 | 229 | 2.0 | 6.0 | 0.00 | 0.00 | 0.00 | 54 | 1014.7 |
| 20260902154130 | 91 | 202 | 2.0 | 5.0 | 0.00 | 0.00 | 0.00 | 54 | 1014.8 |
| 20260902153628 | 90 | 220 | 2.0 | 6.0 | 0.00 | 0.00 | 0.00 | 53 | 1014.8 |
| 20260902153129 | 90 | 202 | 2.0 | 6.0 | 0.00 | 0.00 | 0.00 | 55 | 1014.8 |
| 20260902152628 | 89 | 222 | 2.0 | 6.0 | 0.00 | 0.00 | 0.00 | 56 | 1014.9 |
| 20260902152413 | 89 | 192 | 2.0 | 6.0 | 0.00 | 0.00 | 0.00 | 56 | 1014.9 |
| 20260902151629 | 90 | 214 | 2.0 | 6.0 | 0.00 | 0.00 | 0.00 | 57 | 1014.9 |
| 20260902151130 | 90 | 232 | 2.0 | 6.0 | 0.00 | 0.00 | 0.00 | 55 | 1014.9 |
| 20260902150630 | 89 | 218 | 2.0 | 5.0 | 0.00 | 0.00 | 0.00 | 58 | 1014.9 |
| 20260902150129 | 89 | 69 | 2.0 | 6.0 | 0.00 | 0.00 | 0.00 | 57 | 1014.9 |
| 20260902145629 | 88 | 200 | 3.0 | 6.0 | 0.00 | 0.00 | 0.00 | 59 | 1014.8 |
| 20260902145131 | 87 | 238 | 3.0 | 6.0 | 0.00 | 0.00 | 0.00 | 60 | 1014.8 |
| 20260902144631 | 87 | 236 | 3.0 | 6.0 | 0.00 | 0.00 | 0.00 | 60 | 1014.9 |
| 20260902144129 | 87 | 213 | 3.0 | 6.0 | 0.00 | 0.00 | 0.00 | 61 | 1014.9 |
| 20260902143630 | 87 | 227 | 2.0 | 6.0 | 0.00 | 0.00 | 0.00 | 59 | 1015.0 |
| 20260902143129 | 87 | 194 | 2.0 | 4.0 | 0.00 | 0.00 | 0.00 | 61 | 1015.0 |
| 20260902142629 | 87 | 242 | 2.0 | 4.0 | 0.00 | 0.00 | 0.00 | 60 | 1015.0 |
| 20260902142130 | 86 | 229 | 2.0 | 6.0 | 0.00 | 0.00 | 0.00 | 61 | 1015.0 |
| 20260902141630 | 85 | 233 | 3.0 | 6.0 | 0.00 | 0.00 | 0.00 | 62 | 1014.9 |
| 20260902141128 | 85 | 252 | 2.0 | 6.0 | 0.00 | 0.00 | 0.00 | 62 | 1015.0 |
| 20260902140629 | 85 | 222 | 2.0 | 5.0 | 0.00 | 0.00 | 0.00 | 63 | 1014.9 |
| 20260902140129 | 84 | 225 | 2.0 | 5.0 | 0.00 | 0.00 | 0.00 | 64 | 1014.9 |
| 20260902135629 | 84 | 227 | 3.0 | 6.0 | 0.00 | 0.00 | 0.00 | 65 | 1014.8 |
| 20260902135129 | 84 | 227 | 3.0 | 6.0 | 0.00 | 0.00 | 0.00 | 66 | 1014.7 |
| 20260902134630 | 83 | 239 | 2.0 | 5.0 | 0.00 | 0.00 | 0.00 | 66 | 1014.6 |
| 20260902134415 | 83 | 234 | 2.0 | 5.0 | 0.00 | 0.00 | 0.00 | 67 | 1014.7 |
| 20260902133629 | 82 | 228 | 2.0 | 4.0 | 0.00 | 0.00 | 0.00 | 69 | 1014.7 |
| 20260902133130 | 82 | 231 | 3.0 | 4.0 | 0.00 | 0.00 | 0.00 | 69 | 1014.6 |
| 20260902132630 | 82 | 235 | 2.0 | 4.0 | 0.00 | 0.00 | 0.00 | 69 | 1014.6 |
| 20260902132131 | 81 | 233 | 2.0 | 4.0 | 0.00 | 0.00 | 0.00 | 71 | 1014.6 |
| 20260902131630 | 81 | 235 | 2.0 | 3.0 | 0.00 | 0.00 | 0.00 | 72 | 1014.6 |
| 20260902131403 | 80 | 233 | 1.0 | 3.0 | 0.00 | 0.00 | 0.00 | 73 | 1014.6 |
| 20260902130632 | 80 | 244 | 1.0 | 2.0 | 0.00 | 0.00 | 0.00 | 75 | 1014.5 |
| 20260902130130 | 79 | 288 | 0.0 | 1.0 | 0.00 | 0.00 | 0.00 | 76 | 1014.5 |
| 20260902125630 | 78 | 251 | 1.0 | 1.0 | 0.00 | 0.00 | 0.00 | 77 | 1014.4 |
| 20260902125131 | 78 | 286 | 1.0 | 2.0 | 0.00 | 0.00 | 0.00 | 77 | 1014.4 |
| 20260902124630 | 78 | 280 | 1.0 | 2.0 | 0.00 | 0.00 | 0.00 | 78 | 1014.3 |
| 20260902124405 | 78 | 257 | 1.0 | 2.0 | 0.00 | 0.00 | 0.00 | 78 | 1014.3 |
| 20260902123629 | 77 | 197 | 1.0 | 2.0 | 0.00 | 0.00 | 0.00 | 79 | 1014.3 |
| 20260902123129 | 77 | 268 | 1.0 | 2.0 | 0.00 | 0.00 | 0.00 | 80 | 1014.2 |
| 20260902122630 | 76 | 216 | 0.0 | 2.0 | 0.00 | 0.00 | 0.00 | 81 | 1014.1 |
| 20260902122405 | 77 | 0 | 0.0 | 1.0 | 0.00 | 0.00 | 0.00 | 80 | 1014.1 |
| 20260902121903 | 77 | 249 | 0.0 | 1.0 | 0.00 | 0.00 | 0.00 | 80 | 1014.1 |
| 20260902121130 | 77 | 284 | 0.0 | 1.0 | 0.00 | 0.00 | 0.00 | 81 | 1014.1 |
| 20260902120630 | 77 | 214 | 0.0 | 1.0 | 0.00 | 0.00 | 0.00 | 80 | 1014.1 |
| 20260902120130 | 77 | 0 | 0.0 | 1.0 | 0.00 | 0.00 | 0.00 | 79 | 1014.1 |
| 20260902115628 | 77 | 0 | 0.0 | 1.0 | 0.00 | 0.00 | 0.00 | 79 | 1014.1 |
| 20260902115131 | 78 | 0 | 0.0 | 1.0 | 0.00 | 0.00 | 0.00 | 78 | 1014.1 |
| 20260902114629 | 78 | 0 | 0.0 | 1.0 | 0.00 | 0.00 | 0.00 | 78 | 1014.0 |
| 20260902114130 | 78 | 0 | 0.0 | 0.0 | 0.00 | 0.00 | 0.00 | 77 | 1014.0 |
| 20260902113629 | 78 | 258 | 0.0 | 0.0 | 0.00 | 0.00 | 0.00 | 77 | 1014.0 |
| 20260902113129 | 79 | 0 | 0.0 | 0.0 | 0.00 | 0.00 | 0.00 | 76 | 1014.0 |
| 20260902112853 | 79 | 0 | 0.0 | 1.0 | 0.00 | 0.00 | 0.00 | 76 | 1014.0 |
| 20260902112129 | 79 | 0 | 1.0 | 2.0 | 0.00 | 0.00 | 0.00 | 76 | 1013.9 |
| 20260902111629 | 79 | 317 | 1.0 | 2.0 | 0.00 | 0.00 | 0.00 | 75 | 1013.9 |
| 20260902111129 | 79 | 281 | 1.0 | 2.0 | 0.00 | 0.00 | 0.00 | 75 | 1013.9 |
| 20260902110852 | 79 | 241 | 1.0 | 2.0 | 0.00 | 0.00 | 0.00 | 76 | 1013.9 |
| 20260902110128 | 79 | 216 | 2.0 | 3.0 | 0.00 | 0.00 | 0.00 | 75 | 1013.8 |
| 20260902105628 | 79 | 242 | 2.0 | 4.0 | 0.00 | 0.00 | 0.00 | 75 | 1013.7 |
| 20260902105129 | 79 | 205 | 2.0 | 4.0 | 0.00 | 0.00 | 0.00 | 76 | 1013.7 |
| 20260902104630 | 79 | 253 | 1.0 | 3.0 | 0.00 | 0.00 | 0.00 | 77 | 1013.7 |
| 20260902104130 | 79 | 242 | 1.0 | 2.0 | 0.00 | 0.00 | 0.00 | 78 | 1013.8 |
| 20260902103859 | 79 | 224 | 2.0 | 2.0 | 0.00 | 0.00 | 0.00 | 78 | 1013.8 |
| 20260902103129 | 79 | 282 | 2.0 | 2.0 | 0.00 | 0.00 | 0.00 | 78 | 1013.8 |
| 20260902102633 | 79 | 267 | 2.0 | 2.0 | 0.00 | 0.00 | 0.00 | 78 | 1013.8 |
| 20260902102629 | 79 | 230 | 2.0 | 2.0 | 0.00 | 0.00 | 0.00 | 78 | 1013.8 |
| 20260902101629 | 79 | 266 | 2.0 | 3.0 | 0.00 | 0.00 | 0.00 | 78 | 1013.7 |
| 20260902101130 | 79 | 232 | 2.0 | 3.0 | 0.00 | 0.00 | 0.00 | 78 | 1013.7 |
| 20260902100628 | 78 | 257 | 2.0 | 2.0 | 0.00 | 0.00 | 0.00 | 78 | 1013.7 |
| 20260902100128 | 78 | 255 | 2.0 | 2.0 | 0.00 | 0.00 | 0.00 | 79 | 1013.7 |
| 20260902095628 | 78 | 276 | 1.0 | 2.0 | 0.00 | 0.00 | 0.00 | 80 | 1013.8 |
| 20260902095129 | 77 | 254 | 0.0 | 1.0 | 0.00 | 0.00 | 0.00 | 80 | 1013.8 |
| 20260902094631 | 78 | 163 | 0.0 | 1.0 | 0.00 | 0.00 | 0.00 | 79 | 1013.8 |
| 20260902094129 | 78 | 0 | 0.0 | 0.0 | 0.00 | 0.00 | 0.00 | 79 | 1013.9 |
| 20260902093628 | 78 | 319 | 0.0 | 1.0 | 0.00 | 0.00 | 0.00 | 78 | 1013.9 |
| 20260902093355 | 78 | 172 | 0.0 | 2.0 | 0.00 | 0.00 | 0.00 | 78 | 1014.0 |
| 20260902092628 | 78 | 203 | 0.0 | 2.0 | 0.00 | 0.00 | 0.00 | 78 | 1013.9 |
| 20260902092129 | 78 | 0 | 0.0 | 1.0 | 0.00 | 0.00 | 0.00 | 78 | 1013.9 |
| 20260902091630 | 78 | 0 | 0.0 | 1.0 | 0.00 | 0.00 | 0.00 | 78 | 1013.9 |
| 20260902091132 | 78 | 0 | 0.0 | 0.0 | 0.00 | 0.00 | 0.00 | 78 | 1013.9 |
| 20260902090631 | 79 | 0 | 0.0 | 0.0 | 0.00 | 0.00 | 0.00 | 77 | 1013.9 |
| 20260902090130 | 79 | 0 | 0.0 | 2.0 | 0.00 | 0.00 | 0.00 | 77 | 1013.9 |
| 20260902085629 | 79 | 0 | 0.0 | 2.0 | 0.00 | 0.00 | 0.00 | 77 | 1014.0 |
| 20260902085130 | 79 | 51 | 0.0 | 2.0 | 0.00 | 0.00 | 0.00 | 77 | 1014.0 |
| 20260902084629 | 79 | 263 | 0.0 | 2.0 | 0.00 | 0.00 | 0.00 | 77 | 1014.0 |
| 20260902084352 | 79 | 185 | 1.0 | 2.0 | 0.00 | 0.00 | 0.00 | 77 | 1013.9 |
| 20260902084337 | 79 | 303 | 0.0 | 2.0 | 0.00 | 0.00 | 0.00 | 77 | 1014.0 |
| 20260902083129 | 79 | 293 | 1.0 | 2.0 | 0.00 | 0.00 | 0.00 | 76 | 1013.9 |
| 20260902082628 | 79 | 0 | 1.0 | 4.0 | 0.00 | 0.00 | 0.00 | 76 | 1014.0 |
| 20260902082129 | 79 | 134 | 1.0 | 4.0 | 0.00 | 0.00 | 0.00 | 76 | 1014.0 |
| 20260902081629 | 79 | 106 | 1.0 | 2.0 | 0.00 | 0.00 | 0.00 | 76 | 1014.0 |
| 20260902081128 | 79 | 137 | 1.0 | 4.0 | 0.00 | 0.00 | 0.00 | 76 | 1014.1 |
| 20260902080628 | 79 | 19 | 1.0 | 4.0 | 0.00 | 0.00 | 0.00 | 76 | 1014.1 |
| 20260902080351 | 79 | 116 | 1.0 | 4.0 | 0.00 | 0.00 | 0.00 | 76 | 1014.2 |
| 20260902075858 | 79 | 74 | 1.0 | 2.0 | 0.00 | 0.00 | 0.00 | 76 | 1014.2 |
| 20260902075353 | 79 | 96 | 2.0 | 4.0 | 0.00 | 0.00 | 0.00 | 75 | 1014.2 |
| 20260902075123 | 79 | 62 | 1.0 | 4.0 | 0.00 | 0.00 | 0.00 | 75 | 1014.3 |
| 20260902074129 | 80 | 7 | 1.0 | 3.0 | 0.00 | 0.00 | 0.00 | 75 | 1014.3 |
| 20260902073629 | 80 | 300 | 1.0 | 3.0 | 0.00 | 0.00 | 0.00 | 75 | 1014.4 |
| 20260902073128 | 80 | 346 | 1.0 | 3.0 | 0.00 | 0.00 | 0.00 | 75 | 1014.4 |
| 20260902072615 | 80 | 42 | 1.0 | 3.0 | 0.00 | 0.00 | 0.00 | 74 | 1014.4 |
| 20260902072115 | 80 | 64 | 1.0 | 2.0 | 0.00 | 0.00 | 0.00 | 74 | 1014.4 |
| 20260902071616 | 80 | 107 | 1.0 | 2.0 | 0.00 | 0.00 | 0.00 | 74 | 1014.4 |
| 20260902071116 | 80 | 101 | 0.0 | 2.0 | 0.00 | 0.00 | 0.00 | 74 | 1014.3 |
| 20260902070616 | 80 | 0 | 0.0 | 1.0 | 0.00 | 0.00 | 0.00 | 74 | 1014.4 |
| 20260902070115 | 80 | 0 | 0.0 | 1.0 | 0.00 | 0.00 | 0.00 | 73 | 1014.4 |
| 20260902065601 | 80 | 0 | 0.0 | 1.0 | 0.00 | 0.00 | 0.00 | 73 | 1014.4 |
| 20260902065331 | 80 | 0 | 0.0 | 1.0 | 0.00 | 0.00 | 0.00 | 73 | 1014.4 |
| 20260902064601 | 80 | 0 | 0.0 | 1.0 | 0.00 | 0.00 | 0.00 | 72 | 1014.4 |
| 20260902064101 | 81 | 76 | 0.0 | 1.0 | 0.00 | 0.00 | 0.00 | 72 | 1014.4 |
| 20260902063602 | 81 | 309 | 1.0 | 2.0 | 0.00 | 0.00 | 0.00 | 71 | 1014.5 |
| 20260902063102 | 81 | 83 | 1.0 | 2.0 | 0.00 | 0.00 | 0.00 | 71 | 1014.5 |
| 20260902062602 | 81 | 96 | 1.0 | 2.0 | 0.00 | 0.00 | 0.00 | 71 | 1014.5 |
| 20260902062106 | 81 | 92 | 1.0 | 2.0 | 0.00 | 0.00 | 0.00 | 71 | 1014.5 |
| 20260902061324 | 81 | 262 | 1.0 | 2.0 | 0.00 | 0.00 | 0.00 | 70 | 1014.4 |
| 20260902060602 | 81 | 92 | 1.0 | 2.0 | 0.00 | 0.00 | 0.00 | 70 | 1014.5 |
| 20260902055602 | 82 | 0 | 1.0 | 3.0 | 0.00 | 0.00 | 0.00 | 69 | 1014.5 |
| 20260902055102 | 82 | 356 | 1.0 | 3.0 | 0.00 | 0.00 | 0.00 | 69 | 1014.5 |
| 20260902054602 | 82 | 89 | 1.0 | 3.0 | 0.00 | 0.00 | 0.00 | 68 | 1014.4 |
| 20260902054102 | 83 | 153 | 1.0 | 3.0 | 0.00 | 0.00 | 0.00 | 68 | 1014.4 |
| 20260902053602 | 83 | 123 | 1.0 | 3.0 | 0.00 | 0.00 | 0.00 | 67 | 1014.2 |
| 20260902053324 | 83 | 312 | 1.0 | 2.0 | 0.00 | 0.00 | 0.00 | 66 | 1014.2 |
| 20260902052602 | 83 | 80 | 1.0 | 2.0 | 0.00 | 0.00 | 0.00 | 66 | 1014.2 |
| 20260902052102 | 83 | 0 | 1.0 | 2.0 | 0.00 | 0.00 | 0.00 | 65 | 1014.1 |
| 20260902051602 | 83 | 150 | 1.0 | 3.0 | 0.00 | 0.00 | 0.00 | 65 | 1014.2 |
| 20260902051105 | 84 | 82 | 1.0 | 3.0 | 0.00 | 0.00 | 0.00 | 65 | 1014.2 |
| 20260902050602 | 84 | 60 | 1.0 | 3.0 | 0.00 | 0.00 | 0.00 | 64 | 1014.2 |
| 20260902045601 | 84 | 91 | 1.0 | 3.0 | 0.00 | 0.00 | 0.00 | 63 | 1014.3 |
| 20260902045102 | 84 | 214 | 1.0 | 2.0 | 0.00 | 0.00 | 0.00 | 62 | 1014.3 |
| 20260902044602 | 85 | 349 | 1.0 | 3.0 | 0.00 | 0.00 | 0.00 | 62 | 1014.3 |
| 20260902044102 | 85 | 54 | 1.0 | 3.0 | 0.00 | 0.00 | 0.00 | 62 | 1014.3 |
| 20260902043602 | 85 | 0 | 1.0 | 3.0 | 0.00 | 0.00 | 0.00 | 62 | 1014.3 |
| 20260902043330 | 85 | 43 | 1.0 | 3.0 | 0.00 | 0.00 | 0.00 | 62 | 1014.3 |
| 20260902042601 | 85 | 39 | 2.0 | 3.0 | 0.00 | 0.00 | 0.00 | 62 | 1014.3 |
| 20260902042103 | 85 | 70 | 2.0 | 3.0 | 0.00 | 0.00 | 0.00 | 62 | 1014.3 |
| 20260902041603 | 86 | 111 | 2.0 | 4.0 | 0.00 | 0.00 | 0.00 | 62 | 1014.3 |
| 20260902041102 | 86 | 76 | 2.0 | 4.0 | 0.00 | 0.00 | 0.00 | 62 | 1014.2 |
| 20260902040604 | 86 | 265 | 2.0 | 4.0 | 0.00 | 0.00 | 0.00 | 62 | 1014.2 |
| 20260902035549 | 86 | 135 | 2.0 | 3.0 | 0.00 | 0.00 | 0.00 | 61 | 1014.1 |
| 20260902035048 | 86 | 112 | 1.0 | 3.0 | 0.00 | 0.00 | 0.00 | 61 | 1014.0 |
| 20260902034532 | 86 | 173 | 1.0 | 3.0 | 0.00 | 0.00 | 0.00 | 60 | 1014.0 |
| 20260902034033 | 87 | 150 | 1.0 | 3.0 | 0.00 | 0.00 | 0.00 | 60 | 1013.9 |
| 20260902033531 | 87 | 145 | 2.0 | 3.0 | 0.00 | 0.00 | 0.00 | 59 | 1013.8 |
| 20260902033030 | 87 | 173 | 2.0 | 3.0 | 0.00 | 0.00 | 0.00 | 59 | 1013.8 |
| 20260902032530 | 87 | 161 | 2.0 | 4.0 | 0.00 | 0.00 | 0.00 | 59 | 1013.7 |
| 20260902032030 | 87 | 120 | 2.0 | 4.0 | 0.00 | 0.00 | 0.00 | 58 | 1013.6 |
| 20260902031503 | 87 | 115 | 1.0 | 4.0 | 0.00 | 0.00 | 0.00 | 58 | 1013.6 |
| 20260902031003 | 87 | 249 | 1.0 | 3.0 | 0.00 | 0.00 | 0.00 | 57 | 1013.5 |
| 20260902030503 | 87 | 134 | 2.0 | 3.0 | 0.00 | 0.00 | 0.00 | 57 | 1013.5 |
| 20260902030002 | 87 | 164 | 2.0 | 3.0 | 0.00 | 0.00 | 0.00 | 57 | 1013.4 |
| 20260902025502 | 88 | 80 | 1.0 | 2.0 | 0.00 | 0.00 | 0.00 | 57 | 1013.2 |
| 20260902025003 | 88 | 173 | 1.0 | 3.0 | 0.00 | 0.00 | 0.00 | 56 | 1013.1 |
| 20260902024502 | 88 | 78 | 1.0 | 3.0 | 0.00 | 0.00 | 0.00 | 56 | 1013.1 |
| 20260902024002 | 88 | 45 | 1.0 | 3.0 | 0.00 | 0.00 | 0.00 | 55 | 1013.0 |
| 20260902023504 | 88 | 77 | 1.0 | 4.0 | 0.00 | 0.00 | 0.00 | 55 | 1012.9 |
| 20260902023001 | 89 | 27 | 1.0 | 4.0 | 0.00 | 0.00 | 0.00 | 55 | 1012.8 |
| 20260902022501 | 89 | 138 | 1.0 | 3.0 | 0.00 | 0.00 | 0.00 | 53 | 1012.7 |
| 20260902021933 | 89 | 289 | 1.0 | 3.0 | 0.00 | 0.00 | 0.00 | 53 | 1012.7 |
| 20260902021432 | 89 | 146 | 1.0 | 2.0 | 0.00 | 0.00 | 0.00 | 53 | 1012.6 |
| 20260902020932 | 90 | 330 | 1.0 | 2.0 | 0.00 | 0.00 | 0.00 | 52 | 1012.5 |
| 20260902020432 | 90 | 171 | 1.0 | 3.0 | 0.00 | 0.00 | 0.00 | 52 | 1012.5 |
| 20260902015932 | 90 | 107 | 1.0 | 3.0 | 0.00 | 0.00 | 0.00 | 52 | 1012.4 |
| 20260902015431 | 90 | 10 | 1.0 | 3.0 | 0.00 | 0.00 | 0.00 | 51 | 1012.3 |
| 20260902014931 | 90 | 63 | 1.0 | 2.0 | 0.00 | 0.00 | 0.00 | 51 | 1012.3 |
| 20260902014704 | 91 | 154 | 2.0 | 3.0 | 0.00 | 0.00 | 0.00 | 50 | 1012.2 |
| 20260902014432 | 91 | 76 | 2.0 | 3.0 | 0.00 | 0.00 | 0.00 | 50 | 1012.2 |
| 20260902013421 | 91 | 231 | 2.0 | 4.0 | 0.00 | 0.00 | 0.00 | 49 | 1012.1 |
| 20260902012921 | 91 | 144 | 2.0 | 4.0 | 0.00 | 0.00 | 0.00 | 49 | 1012.1 |
| 20260902012421 | 91 | 85 | 2.0 | 5.0 | 0.00 | 0.00 | 0.00 | 49 | 1012.0 |
| 20260902011920 | 92 | 68 | 3.0 | 6.0 | 0.00 | 0.00 | 0.00 | 49 | 1012.1 |
| 20260902011417 | 92 | 30 | 2.0 | 6.0 | 0.00 | 0.00 | 0.00 | 48 | 1012.0 |
| 20260902010917 | 92 | 79 | 2.0 | 5.0 | 0.00 | 0.00 | 0.00 | 47 | 1012.0 |
| 20260902010418 | 92 | 287 | 2.0 | 5.0 | 0.00 | 0.00 | 0.00 | 46 | 1011.9 |
| 20260902005918 | 93 | 22 | 2.0 | 5.0 | 0.00 | 0.00 | 0.00 | 45 | 1011.9 |